SMS 1

导读 | 豆包AI

SMS-1(同步气象卫星1号)由美国于1974年5月17日发射,是全球首颗试验性地球静止轨道气象卫星。它开启了地球同步轨道气象观测的先河,为后续Geostationary Operational Environmental Satellites(GOES,静止轨道环境业务卫星)系列业务化运行奠定了技术基础。作为气象卫星发展的里程碑,SMS-1推动了现代天气预报与地球气候监测能力的革命性进步,证明了静止轨道气象卫星持续观测天气系统的可行性,对后续全球气象卫星体系发展影响深远。

Basic Information
目录编号:
7298
目录名称:
SMS 1
国际标识:
1974-033A
轨道中心:
EARTH
卫星名称:
SMS 1
卫星全名:
--
卫星状态:
在轨 (已飞行18919 天)
发射日期:
1974-05-17 UTC
国别 :
美国 (US)
星等 :
--
Orbit Information
数据来源 国际轨道数据 AOE轨道数据
星历时间 2026-03-04T08:44:56+0800
8小时前
查看轨道信息
2026-03-04T07:00:00+0800
10小时前
查看轨道信息
半长轴 42636.891km 42636.919km
偏心率 0.0017392 0.0017588
轨道倾角 4.405° 4.405°
近地点辐角 71.843° 72.331°
升交点赤经 250.326° 250.321°
平近点角 296.107° 269.751°
近地点 36184.599km 36183.792km
远地点 36332.909km 36333.772km
周期 1460.286分钟 1460.288分钟
每日圈数 0.986108 0.986107
Detailed Information
使用方式:
暂无
2D Orbit Map
3D Orbit Map
Orbit Altitude Analysis Chart
Orbit Inclination Analysis Chart
Orbit Comprehensive Analysis Chart
View Comprehensive Chart